date:2026-06-21T17:16:25+00:00
validtle:1
satid:64290
launchyear:2025
epoch:26171.3654473
epochday:171
tleage:1
tleclassification:U
active:1
name:SXM-10
meananomly:280.1173
meanmotion:1.0027
rightascension:0.0000
declination:0.0000
semimajoraxis:42164.65174674
altitudeatperigee:35779
altitudeatapogee:35794
inclination:0.0222
eccentricity:0.0001887
argumentofperigree:326.2448
nickname:SXM-10
idesg:25122A  
cosparid:2025-122A
altkm:35784.608833927
velkms:3.0748211245825
velkmh:11069
onumepoch:371
onumnow:373.37
otype:3
otypedesc:Geostationary Orbit
status:3
timestamp:2026-06-20T08:46:15+00:00
nowjuliandate:2461213.219741
nowepochdate:26172.7197337963
TLE:
SXM-10
1 64290U 25122A   26171.36544730 -.00000022  00000+0  00000+0 0  9995
2 64290   0.0222  37.6064 0001887 326.2448 280.1173  1.00272116  3711